Location: Waco, TX
(31.5480°N, 97.1670°W)
Time: 19:37:32
(UTC-05:00)

ISS - Pass Details

Date: 18 September 2018
Orbit: 403 x 408 km, 51.6° (Epoch: 26 September)

Event Time Altitude Azimuth Distance (km) Brightness Sun altitude
Rises 04:43:37 0° 331° (NNW) 2,323 - -31.9°
Reaches altitude 10° 04:46:19 10° 355° (N) 1,459 - -31.4°
Maximum altitude 04:48:23 16° 35° (NE) 1,167 - -31.0°
Exits shadow 04:49:53 12° 65° (ENE) 1,325 -0.4 -30.7°
Drops below altitude 10° 04:50:27 10° 74° (ENE) 1,454 -0.1 -30.6°
Sets 04:53:07 0° 98° (E) 2,309 0.8 -30.1°
